• In Netherlands
  • List of Countries
  • For 7 days
  • Water Temperature
  • Satellite Maps
  • Weather Map
  • Weather Widgets
  • user-avatar
    Login

    Hourly Weather Sveti Vlas

    Today, 17 November, Friday

    Time Temperature Precipitation Wind Pressure Humidity
    00:00 +8°C° 0.2 mm 4 mps 760 mmHg 85%
    01:00 +8°C° 0.2 mm 4 mps 760 mmHg 85%
    02:00 +8°C° 0 mm 4 mps 760 mmHg 85%
    03:00 +8°C° 0.2 mm 4 mps 760 mmHg 86%
    04:00 +8°C° 0.2 mm 4 mps 759 mmHg 87%
    05:00 +10°C° 0.2 mm 4 mps 759 mmHg 88%
    06:00 +10°C° 0.2 mm 4 mps 759 mmHg 89%
    07:00 +10°C° 0.2 mm 4 mps 759 mmHg 90%
    08:00 +10°C° 0 mm 4 mps 759 mmHg 90%
    09:00 +11°C° 0.1 mm 4 mps 759 mmHg 89%
    10:00 +10°C° 0.1 mm 5 mps 759 mmHg 88%
    11:00 +12°C° 0.1 mm 5 mps 759 mmHg 87%
    12:00 +12°C° 0.1 mm 5 mps 759 mmHg 85%
    13:00 +13°C° 0.1 mm 5 mps 758 mmHg 83%
    14:00 +13°C° 0 mm 5 mps 758 mmHg 80%
    15:00 +13°C° 0.1 mm 5 mps 758 mmHg 83%
    16:00 +12°C° 0.1 mm 5 mps 758 mmHg 85%
    17:00 +12°C° 0.1 mm 4 mps 758 mmHg 87%
    18:00 +12°C° 0.1 mm 4 mps 758 mmHg 89%
    19:00 +12°C° 0.1 mm 4 mps 757 mmHg 91%
    20:00 +12°C° 0.1 mm 4 mps 757 mmHg 92%
    21:00 +12°C° 0.1 mm 4 mps 757 mmHg 93%
    22:00 +12°C° 0.1 mm 4 mps 757 mmHg 94%
    23:00 +12°C° 0.1 mm 3 mps 757 mmHg 95%

    Tomorrow, 18 November, Saturday

    Time Temperature Precipitation Wind Pressure Humidity
    00:00 +12°C° 0.4 mm 3 mps 756 mmHg 95%
    01:00 +12°C° 0.4 mm 3 mps 756 mmHg 96%
    02:00 +12°C° 0.4 mm 3 mps 756 mmHg 96%
    03:00 +12°C° 0.8 mm 3 mps 756 mmHg 96%
    04:00 +12°C° 0.8 mm 3 mps 755 mmHg 96%
    05:00 +12°C° 0.8 mm 3 mps 755 mmHg 96%
    06:00 +12°C° 0.7 mm 3 mps 755 mmHg 96%
    07:00 +12°C° 0.7 mm 3 mps 755 mmHg 96%
    08:00 +12°C° 0.7 mm 3 mps 755 mmHg 96%
    09:00 +13°C° 0.8 mm 3 mps 755 mmHg 94%
    10:00 +13°C° 0.8 mm 3 mps 755 mmHg 91%
    11:00 +13°C° 0.8 mm 3 mps 755 mmHg 89%
    12:00 +15°C° 0.3 mm 2 mps 754 mmHg 84%
    13:00 +15°C° 0.3 mm 2 mps 754 mmHg 79%
    14:00 +16°C° 0.3 mm 2 mps 753 mmHg 74%
    15:00 +15°C° 0.1 mm 2 mps 753 mmHg 77%
    16:00 +14°C° 0.1 mm 2 mps 753 mmHg 79%
    17:00 +14°C° 0.1 mm 2 mps 753 mmHg 82%
    18:00 +13°C° 0.1 mm 2 mps 753 mmHg 83%
    19:00 +12°C° 0.1 mm 3 mps 753 mmHg 85%
    20:00 +11°C° 0.1 mm 3 mps 753 mmHg 87%
    21:00 +11°C° 0.3 mm 4 mps 753 mmHg 87%
    22:00 +11°C° 0.3 mm 4 mps 753 mmHg 88%
    23:00 +11°C° 0.3 mm 4 mps 753 mmHg 88%

    Day after tomorrow, 19 November, Sunday

    Time Temperature Precipitation Wind Pressure Humidity
    00:00 +10°C° 0.4 mm 4 mps 753 mmHg 88%
    01:00 +10°C° 0.4 mm 4 mps 752 mmHg 88%
    02:00 +10°C° 0.4 mm 4 mps 752 mmHg 89%
    03:00 +10°C° 0.6 mm 4 mps 752 mmHg 89%
    04:00 +10°C° 0.6 mm 4 mps 752 mmHg 89%
    05:00 +10°C° 0.6 mm 4 mps 752 mmHg 89%
    06:00 +8°C° 0.4 mm 4 mps 752 mmHg 89%
    07:00 +8°C° 0.4 mm 4 mps 752 mmHg 88%
    08:00 +8°C° 0.4 mm 4 mps 752 mmHg 87%
    09:00 +10°C° 0.4 mm 4 mps 752 mmHg 83%
    10:00 +10°C° 0.4 mm 4 mps 752 mmHg 78%
    11:00 +10°C° 0.4 mm 4 mps 752 mmHg 74%
    12:00 +11°C° 0.8 mm 4 mps 752 mmHg 71%
    13:00 +11°C° 0.8 mm 4 mps 751 mmHg 68%
    14:00 +12°C° 0.8 mm 4 mps 751 mmHg 65%
    15:00 +11°C° 0.2 mm 3 mps 751 mmHg 67%
    16:00 +10°C° 0.2 mm 3 mps 751 mmHg 69%
    17:00 +10°C° 0.2 mm 3 mps 751 mmHg 71%
    18:00 +10°C° 0 mm 3 mps 751 mmHg 70%
    19:00 +8°C° 0 mm 4 mps 751 mmHg 69%
    20:00 +8°C° 0 mm 4 mps 752 mmHg 68%
    21:00 +7°C° 0 mm 4 mps 752 mmHg 67%
    22:00 +7°C° 0 mm 5 mps 752 mmHg 66%
    23:00 +7°C° 0 mm 5 mps 752 mmHg 65%

    20 November, Monday

    Time Temperature Precipitation Wind Pressure Humidity
    00:00 +6°C° 0 mm 5 mps 752 mmHg 66%
    01:00 +6°C° 0 mm 5 mps 752 mmHg 67%
    02:00 +6°C° 0 mm 5 mps 752 mmHg 68%
    03:00 +6°C° 0 mm 5 mps 752 mmHg 69%
    04:00 +5°C° 0 mm 5 mps 752 mmHg 69%
    05:00 +5°C° 0 mm 5 mps 752 mmHg 70%
    06:00 +5°C° 0 mm 5 mps 753 mmHg 70%
    07:00 +4°C° 0 mm 6 mps 753 mmHg 70%
    08:00 +4°C° 0 mm 6 mps 753 mmHg 71%
    09:00 +4°C° 0.4 mm 6 mps 753 mmHg 70%
    10:00 +5°C° 0.4 mm 7 mps 754 mmHg 70%
    11:00 +5°C° 0.4 mm 7 mps 754 mmHg 69%
    12:00 +5°C° 0.5 mm 7 mps 754 mmHg 69%
    13:00 +5°C° 0.5 mm 7 mps 754 mmHg 69%
    14:00 +5°C° 0.5 mm 7 mps 754 mmHg 69%
    15:00 +5°C° 0.1 mm 7 mps 754 mmHg 70%
    16:00 +5°C° 0.1 mm 7 mps 754 mmHg 71%
    17:00 +5°C° 0.1 mm 7 mps 754 mmHg 72%
    18:00 +4°C° 0 mm 6 mps 755 mmHg 73%
    19:00 +4°C° 0 mm 6 mps 755 mmHg 74%
    20:00 +3°C° 0 mm 6 mps 755 mmHg 75%
    21:00 +3°C° 0 mm 7 mps 755 mmHg 74%
    22:00 +3°C° 0 mm 7 mps 756 mmHg 74%
    23:00 +2°C° 0 mm 7 mps 756 mmHg 73%

    21 November, Tuesday

    Time Temperature Precipitation Wind Pressure Humidity
    00:00 +2°C° 0 mm 7 mps 756 mmHg 74%
    01:00 +2°C° 0 mm 7 mps 756 mmHg 76%
    02:00 0°C° 0 mm 7 mps 756 mmHg 77%
    03:00 +1°C° 0 mm 6 mps 756 mmHg 78%
    04:00 +1°C° 0 mm 6 mps 756 mmHg 79%
    05:00 +1°C° 0 mm 6 mps 757 mmHg 80%
    06:00 +1°C° 0 mm 5 mps 757 mmHg 80%
    07:00 0°C° 0 mm 5 mps 757 mmHg 80%
    08:00 0°C° 0 mm 5 mps 758 mmHg 80%
    09:00 +2°C° 0 mm 5 mps 758 mmHg 72%
    10:00 +5°C° 0 mm 4 mps 758 mmHg 64%
    11:00 +6°C° 0 mm 4 mps 758 mmHg 56%
    12:00 +7°C° 0 mm 4 mps 757 mmHg 53%
    13:00 +8°C° 0 mm 4 mps 757 mmHg 50%
    14:00 +8°C° 0 mm 4 mps 757 mmHg 46%
    15:00 +8°C° 0 mm 4 mps 757 mmHg 50%
    16:00 +8°C° 0 mm 3 mps 757 mmHg 54%
    17:00 +7°C° 0 mm 3 mps 757 mmHg 58%
    18:00 +7°C° 0 mm 3 mps 757 mmHg 59%
    19:00 +5°C° 0 mm 4 mps 757 mmHg 61%
    20:00 +5°C° 0 mm 4 mps 757 mmHg 62%
    21:00 +5°C° 0 mm 4 mps 756 mmHg 63%
    22:00 +3°C° 0 mm 5 mps 756 mmHg 64%
    23:00 +3°C° 0 mm 5 mps 756 mmHg 64%

    22 November, Wednesday

    Time Temperature Precipitation Wind Pressure Humidity
    00:00 +3°C° 0 mm 5 mps 756 mmHg 65%
    01:00 +3°C° 0 mm 5 mps 756 mmHg 65%
    02:00 +3°C° 0 mm 5 mps 756 mmHg 65%
    03:00 +3°C° 0 mm 5 mps 756 mmHg 66%
    04:00 +3°C° 0 mm 5 mps 756 mmHg 66%
    05:00 +3°C° 0 mm 5 mps 756 mmHg 67%
    06:00 +3°C° 0 mm 5 mps 756 mmHg 67%
    07:00 +3°C° 0 mm 5 mps 756 mmHg 67%
    08:00 +5°C° 0 mm 5 mps 757 mmHg 68%
    09:00 +7°C° 0 mm 5 mps 757 mmHg 62%
    10:00 +9°C° 0 mm 5 mps 757 mmHg 57%
    11:00 +12°C° 0 mm 5 mps 757 mmHg 51%
    12:00 +13°C° 0 mm 5 mps 757 mmHg 50%
    13:00 +14°C° 0 mm 4 mps 757 mmHg 50%
    14:00 +14°C° 0 mm 4 mps 757 mmHg 49%
    15:00 +13°C° 0 mm 3 mps 757 mmHg 54%
    16:00 +12°C° 0 mm 3 mps 757 mmHg 58%
    17:00 +12°C° 0 mm 2 mps 757 mmHg 63%
    18:00 +10°C° 0 mm 2 mps 758 mmHg 65%
    19:00 +10°C° 0 mm 2 mps 758 mmHg 66%
    20:00 +9°C° 0 mm 2 mps 758 mmHg 68%
    21:00 +9°C° 0 mm 2 mps 758 mmHg 69%
    22:00 +9°C° 0 mm 2 mps 758 mmHg 69%
    23:00 +9°C° 0 mm 2 mps 759 mmHg 70%
    Show more